EW1476 Weather Reports


Display with metric or nautical units.
time (UTC)temp
F
wind
direction
speed
MPH
gust
MPH
rain 1hr
in
rain 24hr
in
rain mn
in
humidity
%
barometer
mb
20260905001530 77 290 0.0 0.0 0.00 0.08 0.03 89 1012.9
20260905000033 77 290 0.0 0.0 0.00 0.08 0.03 88 1013.1
20260904234529 77 290 0.0 0.0 0.00 0.08 0.03 88 1013.0
20260904233018 77 290 0.0 0.0 0.00 0.08 0.03 88 1013.0
20260904231514 77 290 0.0 0.0 0.00 0.08 0.03 89 1013.5
20260904230045 78 290 0.0 0.0 0.00 0.08 0.03 87 1013.2
20260904224533 78 290 0.0 0.0 0.00 0.08 0.03 86 1013.3
20260904223030 79 290 0.0 0.0 0.00 0.08 0.03 85 1013.2
20260904221527 79 290 0.0 0.0 0.00 0.08 0.03 85 1013.3
20260904220024 79 290 0.0 0.0 0.00 0.08 0.03 87 1013.6
20260904214540 79 290 0.0 0.0 0.00 0.08 0.03 84 1013.5
20260904213035 78 290 0.0 0.0 0.00 0.08 0.03 84 1013.6
20260904211532 78 290 0.0 0.0 0.00 0.08 0.03 84 1013.9
20260904210030 78 290 0.0 0.0 0.00 0.08 0.03 85 1014.1
20260904204507 79 290 0.0 0.0 0.00 0.08 0.03 84 1014.2
20260904203030 80 290 0.0 0.0 0.00 0.08 0.03 80 1014.2
20260904201537 80 290 0.0 0.0 0.00 0.08 0.03 77 1014.1
20260904200036 81 293 0.0 1.0 0.00 0.08 0.03 74 1014.2
20260904194515 82 293 0.0 1.0 0.00 0.08 0.03 74 1014.2
20260904193012 81 293 0.0 1.0 0.00 0.08 0.03 74 1014.4
20260904191531 82 295 0.0 1.0 0.00 0.08 0.03 73 1014.1
20260904190029 82 295 0.0 1.0 0.00 0.08 0.03 72 1014.3
20260904184523 82 285 1.0 3.0 0.00 0.08 0.03 72 1014.8
20260904183022 82 277 1.0 4.0 0.00 0.08 0.03 74 1015.0
20260904181518 81 281 0.0 2.0 0.00 0.08 0.03 74 1015.0
20260904180010 81 283 0.0 3.0 0.00 0.08 0.03 75 1015.0
20260904174508 80 282 1.0 3.0 0.00 0.08 0.03 74 1015.1
20260904173008 80 278 0.0 0.0 0.00 0.08 0.03 75 1015.1
20260904171504 80 276 0.0 2.0 0.00 0.08 0.03 78 1015.2
20260904170004 80 280 0.0 2.0 0.00 0.08 0.03 76 1015.4
20260904164518 79 283 1.0 3.0 0.00 0.08 0.03 78 1015.6
20260904163036 79 278 0.0 1.0 0.00 0.08 0.03 79 1015.8
20260904161510 78 276 1.0 1.0 0.00 0.08 0.03 79 1016.0
20260904160007 78 282 0.0 1.0 0.00 0.09 0.03 79 1015.9
20260904154504 77 283 1.0 1.0 0.00 0.09 0.03 80 1016.0
20260904153006 77 283 1.0 2.0 0.00 0.10 0.03 79 1016.1
20260904151535 76 283 1.0 3.0 0.00 0.10 0.03 81 1016.2
20260904150022 76 283 0.0 2.0 0.00 0.15 0.03 82 1016.4
20260904144516 76 281 1.0 2.0 0.00 0.18 0.03 82 1016.3
20260904143012 76 282 1.0 2.0 0.00 0.19 0.03 83 1016.4
20260904141508 75 281 0.0 2.0 0.00 0.19 0.03 83 1016.2
20260904140004 75 282 1.0 2.0 0.00 0.19 0.03 83 1015.9
20260904134526 74 279 0.0 2.0 0.00 0.19 0.03 85 1015.8
20260904133024 74 276 0.0 1.0 0.00 0.19 0.03 87 1016.0
20260904131518 73 276 0.0 1.0 0.00 0.19 0.03 89 1016.1
20260904130013 72 276 0.0 1.0 0.00 0.19 0.03 90 1016.0
20260904124511 71 276 0.0 0.0 0.00 0.19 0.03 91 1016.0
20260904123009 71 276 0.0 0.0 0.00 0.19 0.03 92 1015.9
20260904121530 70 276 0.0 0.0 0.00 0.19 0.03 92 1016.0
20260904120039 69 276 0.0 0.0 0.00 0.19 0.03 93 1015.9
20260904114524 69 276 0.0 0.0 0.00 0.19 0.03 93 1015.8
20260904113013 69 276 0.0 0.0 0.00 0.19 0.03 93 1015.9
20260904111520 69 276 0.0 0.0 0.00 0.19 0.03 93 1015.8
20260904110035 68 276 0.0 0.0 0.00 0.19 0.03 93 1015.6
20260904104504 68 276 0.0 0.0 0.00 0.19 0.03 93 1015.3
20260904103003 68 276 0.0 0.0 0.00 0.19 0.03 93 1015.3
20260904101512 68 276 0.0 1.0 0.00 0.19 0.03 93 1015.3
20260904100003 68 276 0.0 0.0 0.00 0.19 0.03 93 1015.0
20260904094504 69 276 0.0 0.0 0.00 0.19 0.03 93 1015.2
20260904093004 69 276 0.0 1.0 0.00 0.19 0.03 94 1015.3
20260904091504 68 276 0.0 0.0 0.00 0.19 0.03 94 1015.3
20260904090004 68 274 0.0 0.0 0.00 0.19 0.03 94 1014.9
20260904084503 69 274 0.0 0.0 0.00 0.19 0.03 93 1014.9
20260904083004 69 274 0.0 0.0 0.00 0.19 0.03 93 1014.8
20260904081505 69 274 0.0 0.0 0.00 0.19 0.03 93 1014.6
20260904080004 69 274 0.0 0.0 0.00 0.19 0.03 93 1014.7
20260904074506 69 282 0.0 1.0 0.00 0.19 0.03 93 1014.5
20260904073004 69 293 1.0 2.0 0.00 0.19 0.03 93 1014.5
20260904071507 68 283 1.0 2.0 0.00 0.19 0.03 93 1014.4
20260904070013 68 264 0.0 0.0 0.00 0.19 0.03 93 1014.5
20260904064507 68 252 0.0 0.0 0.00 0.19 0.03 94 1014.3
20260904063008 68 251 0.0 0.0 0.00 0.19 0.03 93 1014.2
20260904061508 68 251 0.0 0.0 0.01 0.19 0.03 93 1014.1
20260904060012 68 250 0.0 0.0 0.01 0.19 0.03 93 1014.1
20260904054525 69 285 0.0 1.0 0.01 0.19 0.03 93 1014.4
20260904053014 69 290 0.0 1.0 0.02 0.19 0.03 93 1014.8
20260904051511 69 285 0.0 0.0 0.01 0.18 0.02 93 1015.4
20260904050010 69 285 0.0 0.0 0.02 0.18 0.02 93 1015.1
20260904044514 69 285 0.0 0.0 0.03 0.18 0.02 93 1015.4
20260904043011 70 306 0.0 0.0 0.02 0.17 0.01 93 1015.0
20260904041513 70 306 0.0 1.0 0.02 0.17 0.01 91 1016.0
20260904040014 71 311 2.0 5.0 0.01 0.16 0.00 90 1016.1
20260904034515 72 322 4.0 7.0 0.04 0.15 0.15 89 1017.1
20260904033022 71 311 1.0 2.0 0.04 0.15 0.15 92 1016.4
20260904031516 72 307 0.0 1.0 0.04 0.15 0.15 91 1015.9
20260904030554 73 307 0.0 2.0 0.04 0.15 0.15 90 1015.9
20260904030544 76 324 3.0 12.0 0.00 0.11 0.11 83 1016.7
20260904023019 79 204 0.0 0.0 0.00 0.11 0.11 88 1015.8
20260904021525 80 204 0.0 0.0 0.00 0.11 0.11 86 1015.7
20260904020024 80 204 0.0 0.0 0.00 0.11 0.11 86 1015.4
20260904014520 79 204 0.0 0.0 0.00 0.11 0.11 86 1015.5
20260904013023 79 204 0.0 0.0 0.00 0.11 0.11 86 1015.3
20260904011517 79 204 0.0 0.0 0.00 0.11 0.11 87 1015.4
20260904010014 79 203 0.0 0.0 0.00 0.11 0.11 87 1015.0
20260904004507 81 205 0.0 0.0 0.00 0.11 0.11 84 1015.3
20260904003004 82 205 0.0 0.0 0.00 0.11 0.11 82 1015.5